Station Historical Data
Daily Summary for February 21, 2012 Units:  English    Metric   Both
« Previous Day
Next Day »
Daily Weekly Monthly Yearly Custom
  High: Low: Average:
Temperature: 62.1 °F 45.5 °F 53 °F
Dew Point: 45.8 °F 25.2 °F 37.2 °F
Humidity: 83% 25% 58%
Wind Speed: 20.0mph 0.0mph 8.9mph
Wind Gust: 24.0mph - -
Wind- - SSW
Pressure: 30.12 in 29.95 in -
Precipitation: 0.01 in    
Historical Graphs
 
 
Tabular Data for February 21, 2012
Time Temperature Dew Point Pressure Wind Wind Speed Wind Gust Humidity Rainfall Rate (Hourly) Conditions
00:00 45.5 °F 36.3 °F 30.12 in SSW 2.0 mph 7.0 mph 70% 0.00 in
00:01 45.5 °F 36.3 °F 30.12 in SSE 4.0 mph 7.0 mph 70% 0.00 in
00:06 45.5 °F 36.7 °F 30.11 in SSE 7.0 mph 10.0 mph 71% 0.00 in
00:11 45.8 °F 37.0 °F 30.12 in SSW 6.0 mph 8.0 mph 71% 0.00 in
00:16 45.9 °F 37.0 °F 30.12 in SSE 10.0 mph 10.0 mph 71% 0.00 in
00:21 45.8 °F 37.3 °F 30.11 in SE 11.0 mph 11.0 mph 72% 0.00 in
00:26 45.9 °F 37.4 °F 30.11 in SSE 5.0 mph 12.0 mph 72% 0.00 in
00:31 45.9 °F 37.4 °F 30.10 in South 9.0 mph 12.0 mph 72% 0.00 in
00:36 45.9 °F 37.4 °F 30.10 in SE 7.0 mph 13.0 mph 72% 0.00 in
00:41 45.9 °F 37.4 °F 30.11 in SSE 5.0 mph 10.0 mph 72% 0.00 in
00:46 45.9 °F 37.8 °F 30.10 in SSE 10.0 mph 13.0 mph 73% 0.00 in
00:51 46.0 °F 37.8 °F 30.08 in SSE 8.0 mph 15.0 mph 73% 0.00 in
00:56 46.5 °F 38.0 °F 30.07 in SSE 11.0 mph 16.0 mph 72% 0.00 in
01:01 46.9 °F 38.4 °F 30.06 in SSE 19.0 mph 19.0 mph 72% 0.00 in
01:06 47.5 °F 38.9 °F 30.06 in ESE 13.0 mph 23.0 mph 72% 0.00 in
01:11 47.7 °F 38.8 °F 30.07 in SSE 13.0 mph 16.0 mph 71% 0.00 in
01:16 47.6 °F 39.0 °F 30.09 in SE 9.0 mph 18.0 mph 72% 0.00 in
01:21 47.6 °F 39.0 °F 30.10 in SSE 6.0 mph 11.0 mph 72% 0.00 in
01:26 47.7 °F 39.1 °F 30.09 in SSE 12.0 mph 13.0 mph 72% 0.00 in
01:31 47.8 °F 39.6 °F 30.10 in SSE 10.0 mph 14.0 mph 73% 0.00 in
01:36 48.0 °F 39.4 °F 30.10 in SSW 14.0 mph 19.0 mph 72% 0.00 in
01:41 48.1 °F 39.9 °F 30.10 in SSE 10.0 mph 15.0 mph 73% 0.00 in
01:46 48.1 °F 39.9 °F 30.11 in SSE 10.0 mph 14.0 mph 73% 0.00 in
01:51 48.1 °F 39.9 °F 30.10 in SSW 13.0 mph 17.0 mph 73% 0.00 in
01:56 48.3 °F 40.1 °F 30.11 in South 4.0 mph 13.0 mph 73% 0.00 in
02:01 48.3 °F 40.1 °F 30.12 in South 7.0 mph 15.0 mph 73% 0.00 in
02:06 48.4 °F 40.2 °F 30.12 in South 9.0 mph 12.0 mph 73% 0.00 in
02:11 48.2 °F 40.0 °F 30.11 in SSE 10.0 mph 15.0 mph 73% 0.00 in
02:16 48.1 °F 40.2 °F 30.11 in SSE 6.0 mph 13.0 mph 74% 0.00 in
02:21 48.2 °F 40.3 °F 30.10 in SE 12.0 mph 17.0 mph 74% 0.00 in
02:26 48.2 °F 40.3 °F 30.10 in SSE 11.0 mph 14.0 mph 74% 0.00 in
02:31 48.4 °F 40.5 °F 30.10 in SSE 11.0 mph 18.0 mph 74% 0.00 in
02:37 48.5 °F 40.2 °F 30.09 in SE 9.0 mph 16.0 mph 73% 0.00 in
02:42 48.4 °F 40.2 °F 30.08 in SSE 11.0 mph 15.0 mph 73% 0.00 in
02:47 48.6 °F 40.3 °F 30.08 in SSE 10.0 mph 15.0 mph 73% 0.00 in
02:52 48.7 °F 40.5 °F 30.08 in South 13.0 mph 14.0 mph 73% 0.00 in
02:57 48.7 °F 40.5 °F 30.08 in SSE 15.0 mph 15.0 mph 73% 0.00 in
03:02 48.7 °F 40.8 °F 30.07 in SSE 9.0 mph 16.0 mph 74% 0.00 in
03:07 48.9 °F 41.0 °F 30.06 in ESE 13.0 mph 15.0 mph 74% 0.00 in
03:12 49.0 °F 40.7 °F 30.07 in SSE 14.0 mph 18.0 mph 73% 0.00 in
03:17 49.1 °F 40.8 °F 30.07 in SSE 13.0 mph 15.0 mph 73% 0.00 in
03:22 49.1 °F 40.8 °F 30.07 in SE 14.0 mph 15.0 mph 73% 0.00 in
03:27 49.1 °F 40.8 °F 30.07 in South 12.0 mph 15.0 mph 73% 0.00 in
03:32 49.2 °F 40.9 °F 30.06 in SE 11.0 mph 18.0 mph 73% 0.00 in
03:37 49.2 °F 40.9 °F 30.06 in SE 17.0 mph 19.0 mph 73% 0.00 in
03:42 49.1 °F 40.8 °F 30.06 in SE 12.0 mph 16.0 mph 73% 0.00 in
03:47 49.1 °F 40.8 °F 30.06 in SSE 12.0 mph 18.0 mph 73% 0.00 in
03:52 48.9 °F 40.6 °F 30.06 in SSE 13.0 mph 18.0 mph 73% 0.00 in
03:57 48.8 °F 40.9 °F 30.06 in South 8.0 mph 16.0 mph 74% 0.00 in
04:02 48.8 °F 40.9 °F 30.06 in ESE 15.0 mph 17.0 mph 74% 0.00 in
04:07 49.0 °F 40.7 °F 30.06 in South 13.0 mph 19.0 mph 73% 0.00 in
04:12 49.2 °F 40.9 °F 30.06 in South 15.0 mph 18.0 mph 73% 0.00 in
04:17 49.2 °F 40.9 °F 30.05 in SSE 16.0 mph 19.0 mph 73% 0.00 in
04:22 49.3 °F 41.0 °F 30.05 in South 10.0 mph 22.0 mph 73% 0.00 in
04:27 49.3 °F 41.0 °F 30.05 in SSE 12.0 mph 18.0 mph 73% 0.00 in
04:32 49.3 °F 41.0 °F 30.04 in SSE 12.0 mph 24.0 mph 73% 0.00 in
04:37 49.1 °F 41.5 °F 30.04 in SSE 14.0 mph 20.0 mph 75% 0.00 in
04:42 48.6 °F 41.7 °F 30.04 in SSE 13.0 mph 24.0 mph 77% 0.00 in
04:47 48.5 °F 42.0 °F 30.04 in SE 10.0 mph 21.0 mph 78% 0.00 in
04:53 48.4 °F 41.9 °F 30.04 in SSW 8.0 mph 14.0 mph 78% 0.00 in
04:58 48.4 °F 41.9 °F 30.05 in SSW 13.0 mph 14.0 mph 78% 0.00 in
05:03 48.4 °F 41.9 °F 30.06 in South 11.0 mph 16.0 mph 78% 0.00 in
05:08 47.9 °F 42.0 °F 30.04 in SSE 12.0 mph 16.0 mph 80% 0.00 in
05:13 47.6 °F 42.4 °F 30.04 in SSE 8.0 mph 19.0 mph 82% 0.00 in
05:18 47.2 °F 42.3 °F 30.04 in SSE 14.0 mph 18.0 mph 83% 0.00 in
05:23 47.2 °F 42.3 °F 30.03 in SSE 7.0 mph 18.0 mph 83% 0.00 in
05:28 47.3 °F 42.4 °F 30.03 in SSE 7.0 mph 15.0 mph 83% 0.00 in
05:33 47.2 °F 42.0 °F 30.03 in SSE 13.0 mph 17.0 mph 82% 0.00 in
05:38 47.2 °F 42.0 °F 30.03 in SSE 12.0 mph 14.0 mph 82% 0.00 in
05:43 47.2 °F 42.0 °F 30.04 in SSW 5.0 mph 16.0 mph 82% 0.00 in
05:48 47.3 °F 42.1 °F 30.04 in South 5.0 mph 11.0 mph 82% 0.00 in
05:53 47.2 °F 42.0 °F 30.04 in South 6.0 mph 12.0 mph 82% 0.00 in
05:58 47.3 °F 41.8 °F 30.05 in South 8.0 mph 13.0 mph 81% 0.00 in
06:03 47.3 °F 41.5 °F 30.05 in SSW 9.0 mph 15.0 mph 80% 0.00 in
06:08 47.4 °F 41.5 °F 30.05 in SSE 5.0 mph 15.0 mph 80% 0.00 in
06:13 47.4 °F 41.5 °F 30.05 in SSW 7.0 mph 15.0 mph 80% 0.00 in
06:18 47.3 °F 41.5 °F 30.05 in SSE 6.0 mph 11.0 mph 80% 0.00 in
06:23 47.4 °F 41.5 °F 30.05 in South 8.0 mph 12.0 mph 80% 0.00 in
06:28 47.4 °F 41.5 °F 30.05 in SSE 13.0 mph 15.0 mph 80% 0.00 in
06:33 47.4 °F 41.5 °F 30.05 in South 7.0 mph 9.0 mph 80% 0.00 in
06:38 47.4 °F 41.5 °F 30.05 in South 7.0 mph 11.0 mph 80% 0.00 in
06:43 47.3 °F 41.5 °F 30.05 in SSW 5.0 mph 10.0 mph 80% 0.00 in
06:48 47.1 °F 41.6 °F 30.04 in SE 14.0 mph 14.0 mph 81% 0.00 in
06:53 47.1 °F 41.6 °F 30.04 in SSE 10.0 mph 14.0 mph 81% 0.00 in
06:58 47.0 °F 41.5 °F 30.04 in SSE 10.0 mph 11.0 mph 81% 0.00 in
07:03 46.9 °F 41.7 °F 30.04 in SE 12.0 mph 16.0 mph 82% 0.00 in
07:08 47.1 °F 41.9 °F 30.04 in SSE 13.0 mph 14.0 mph 82% 0.00 in
07:13 47.3 °F 42.1 °F 30.03 in SSE 9.0 mph 15.0 mph 82% 0.00 in
07:18 47.6 °F 42.1 °F 30.04 in South 11.0 mph 11.0 mph 81% 0.00 in
07:23 47.9 °F 42.4 °F 30.04 in SE 11.0 mph 17.0 mph 81% 0.00 in
07:28 48.2 °F 42.7 °F 30.04 in SSE 11.0 mph 13.0 mph 81% 0.00 in
07:33 48.5 °F 43.0 °F 30.05 in SSW 10.0 mph 14.0 mph 81% 0.00 in
07:39 48.7 °F 43.1 °F 30.04 in SSW 8.0 mph 16.0 mph 81% 0.00 in
07:44 48.6 °F 43.4 °F 30.05 in SSE 9.0 mph 16.0 mph 82% 0.00 in
07:49 48.8 °F 43.6 °F 30.05 in SSW 9.0 mph 14.0 mph 82% 0.00 in
07:54 49.0 °F 43.8 °F 30.05 in South 11.0 mph 15.0 mph 82% 0.00 in
07:59 49.1 °F 43.8 °F 30.05 in SSW 14.0 mph 14.0 mph 82% 0.00 in
08:04 49.1 °F 43.8 °F 30.04 in South 8.0 mph 13.0 mph 82% 0.00 in
08:09 49.2 °F 44.0 °F 30.05 in SSW 8.0 mph 18.0 mph 82% 0.00 in
08:14 49.2 °F 44.0 °F 30.05 in South 6.0 mph 13.0 mph 82% 0.00 in
08:19 49.2 °F 44.0 °F 30.05 in South 11.0 mph 11.0 mph 82% 0.00 in
08:24 49.2 °F 44.0 °F 30.05 in SSE 9.0 mph 15.0 mph 82% 0.00 in
08:29 49.1 °F 44.2 °F 30.05 in SSE 9.0 mph 13.0 mph 83% 0.00 in
08:34 49.2 °F 44.3 °F 30.05 in South 7.0 mph 12.0 mph 83% 0.00 in
08:39 49.3 °F 44.4 °F 30.05 in South 11.0 mph 14.0 mph 83% 0.00 in
08:44 49.3 °F 44.0 °F 30.05 in SSW 8.0 mph 16.0 mph 82% 0.00 in
08:49 49.6 °F 44.3 °F 30.06 in SSE 8.0 mph 14.0 mph 82% 0.00 in
08:55 49.9 °F 44.6 °F 30.05 in SSW 6.0 mph 13.0 mph 82% 0.00 in
09:00 50.3 °F 44.7 °F 30.06 in South 14.0 mph 14.0 mph 81% 0.00 in
09:05 50.5 °F 44.9 °F 30.06 in SSW 8.0 mph 15.0 mph 81% 0.00 in
09:10 50.6 °F 45.0 °F 30.06 in South 5.0 mph 11.0 mph 81% 0.00 in
09:15 50.9 °F 45.3 °F 30.06 in SSE 8.0 mph 14.0 mph 81% 0.00 in
09:20 51.0 °F 45.4 °F 30.06 in South 6.0 mph 11.0 mph 81% 0.00 in
09:25 51.4 °F 45.5 °F 30.05 in South 9.0 mph 16.0 mph 80% 0.00 in
09:30 51.4 °F 45.5 °F 30.06 in SSE 8.0 mph 15.0 mph 80% 0.00 in
09:35 51.6 °F 45.6 °F 30.05 in SW 7.0 mph 14.0 mph 80% 0.00 in
09:40 51.7 °F 45.7 °F 30.06 in SSW 11.0 mph 19.0 mph 80% 0.00 in
09:45 51.9 °F 45.6 °F 30.06 in SW 12.0 mph 19.0 mph 79% 0.00 in
09:50 51.8 °F 45.2 °F 30.06 in SW 13.0 mph 17.0 mph 78% 0.00 in
09:55 52.5 °F 45.8 °F 30.06 in SSW 12.0 mph 15.0 mph 78% 0.00 in
10:00 53.0 °F 45.7 °F 30.06 in SSW 15.0 mph 15.0 mph 76% 0.00 in
10:05 53.2 °F 45.5 °F 30.05 in SW 10.0 mph 22.0 mph 75% 0.00 in
10:10 53.0 °F 44.2 °F 30.06 in SW 17.0 mph 19.0 mph 72% 0.00 in
10:15 52.9 °F 44.8 °F 30.06 in WSW 12.0 mph 18.0 mph 74% 0.00 in
10:20 53.3 °F 44.5 °F 30.06 in SW 8.0 mph 16.0 mph 72% 0.00 in
10:25 53.5 °F 44.3 °F 30.06 in WSW 15.0 mph 23.0 mph 71% 0.00 in
10:30 53.4 °F 44.6 °F 30.06 in SSW 14.0 mph 22.0 mph 72% 0.00 in
10:35 53.9 °F 44.7 °F 30.06 in WSW 12.0 mph 17.0 mph 71% 0.00 in
10:36 53.9 °F 44.7 °F 30.06 in WSW 6.0 mph 17.0 mph 71% 0.00 in
10:41 54.6 °F 45.4 °F 30.06 in SSW 11.0 mph 15.0 mph 71% 0.00 in
10:46 54.9 °F 45.3 °F 30.06 in SW 20.0 mph 24.0 mph 70% 0.00 in
10:51 54.9 °F 43.4 °F 30.06 in SW 18.0 mph 22.0 mph 65% 0.00 in
10:56 54.7 °F 42.8 °F 30.06 in SSW 15.0 mph 20.0 mph 64% 0.00 in
11:01 54.8 °F 43.7 °F 30.06 in SW 19.0 mph 20.0 mph 66% 0.00 in
11:06 54.7 °F 42.4 °F 30.06 in SW 15.0 mph 21.0 mph 63% 0.00 in
11:11 54.9 °F 41.7 °F 30.06 in SW 6.0 mph 17.0 mph 61% 0.00 in
11:16 55.4 °F 42.2 °F 30.06 in SSW 16.0 mph 21.0 mph 61% 0.00 in
11:21 56.1 °F 43.3 °F 30.05 in SSE 15.0 mph 15.0 mph 62% 0.00 in
11:26 55.9 °F 42.7 °F 30.06 in WSW 10.0 mph 20.0 mph 61% 0.00 in
11:31 56.1 °F 43.3 °F 30.05 in WSW 11.0 mph 21.0 mph 62% 0.00 in
11:36 56.2 °F 42.1 °F 30.05 in WSW 11.0 mph 24.0 mph 59% 0.00 in
11:41 56.3 °F 43.9 °F 30.05 in South 7.0 mph 15.0 mph 63% 0.00 in
11:46 56.8 °F 43.5 °F 30.05 in SW 6.0 mph 14.0 mph 61% 0.00 in
11:51 57.1 °F 43.8 °F 30.05 in SW 11.0 mph 14.0 mph 61% 0.00 in
11:56 57.3 °F 42.7 °F 30.05 in SW 14.0 mph 16.0 mph 58% 0.00 in
11:57 57.3 °F 43.1 °F 30.05 in SSW 9.0 mph 16.0 mph 59% 0.00 in
12:02 57.4 °F 43.6 °F 30.05 in South 15.0 mph 18.0 mph 60% 0.00 in
12:07 57.4 °F 44.1 °F 30.05 in SSW 8.0 mph 15.0 mph 61% 0.00 in
12:12 58.4 °F 43.7 °F 30.05 in WSW 12.0 mph 16.0 mph 58% 0.00 in
12:17 58.1 °F 41.6 °F 30.05 in WSW 13.0 mph 14.0 mph 54% 0.00 in
12:22 57.8 °F 41.8 °F 30.04 in SW 14.0 mph 15.0 mph 55% 0.00 in
12:27 57.9 °F 40.4 °F 30.04 in WSW 12.0 mph 18.0 mph 52% 0.00 in
12:32 57.9 °F 40.4 °F 30.04 in SSW 9.0 mph 18.0 mph 52% 0.00 in
12:37 57.9 °F 40.4 °F 30.04 in WSW 9.0 mph 18.0 mph 52% 0.00 in
12:42 58.3 °F 40.8 °F 30.04 in WSW 8.0 mph 17.0 mph 52% 0.00 in
12:47 58.6 °F 42.0 °F 30.03 in WSW 11.0 mph 14.0 mph 54% 0.00 in
12:52 58.7 °F 41.6 °F 30.03 in SW 13.0 mph 14.0 mph 53% 0.00 in
12:57 59.1 °F 41.0 °F 30.02 in SW 11.0 mph 16.0 mph 51% 0.00 in
13:03 59.3 °F 41.2 °F 30.01 in WSW 17.0 mph 17.0 mph 51% 0.00 in
13:08 59.2 °F 41.1 °F 30.01 in SW 10.0 mph 16.0 mph 51% 0.00 in
13:13 59.3 °F 40.7 °F 30.01 in SW 12.0 mph 18.0 mph 50% 0.00 in
13:18 60.1 °F 41.4 °F 30.01 in SW 14.0 mph 17.0 mph 50% 0.00 in
13:23 60.1 °F 41.9 °F 30.00 in WSW 17.0 mph 19.0 mph 51% 0.00 in
13:28 59.8 °F 39.5 °F 30.00 in SW 13.0 mph 18.0 mph 47% 0.00 in
13:33 60.0 °F 40.3 °F 30.00 in WSW 17.0 mph 17.0 mph 48% 0.00 in
13:38 60.2 °F 39.4 °F 30.00 in West 12.0 mph 19.0 mph 46% 0.00 in
13:43 60.3 °F 39.5 °F 30.00 in WSW 13.0 mph 15.0 mph 46% 0.00 in
13:48 60.5 °F 40.2 °F 30.00 in SSW 12.0 mph 16.0 mph 47% 0.00 in
13:53 60.7 °F 39.8 °F 29.99 in SW 9.0 mph 18.0 mph 46% 0.00 in
13:58 60.5 °F 39.1 °F 29.99 in SW 14.0 mph 16.0 mph 45% 0.00 in
14:03 60.5 °F 39.6 °F 29.98 in SW 18.0 mph 18.0 mph 46% 0.00 in
14:08 60.8 °F 39.3 °F 29.99 in SW 11.0 mph 16.0 mph 45% 0.00 in
14:13 60.9 °F 39.4 °F 29.98 in WSW 13.0 mph 20.0 mph 45% 0.00 in
14:18 60.9 °F 37.7 °F 29.98 in WSW 16.0 mph 17.0 mph 42% 0.00 in
14:23 60.7 °F 36.3 °F 29.98 in SW 16.0 mph 20.0 mph 40% 0.00 in
14:28 60.8 °F 36.3 °F 29.98 in WSW 14.0 mph 16.0 mph 40% 0.00 in
14:33 61.1 °F 39.6 °F 29.98 in SW 9.0 mph 13.0 mph 45% 0.00 in
14:38 61.4 °F 39.9 °F 29.98 in WSW 9.0 mph 14.0 mph 45% 0.00 in
14:43 61.1 °F 39.0 °F 29.98 in SW 11.0 mph 19.0 mph 44% 0.00 in
14:48 60.9 °F 36.4 °F 29.98 in West 12.0 mph 21.0 mph 40% 0.00 in
14:53 60.8 °F 37.6 °F 29.98 in SW 8.0 mph 18.0 mph 42% 0.00 in
14:58 61.3 °F 36.2 °F 29.98 in SW 18.0 mph 21.0 mph 39% 0.00 in
15:03 61.3 °F 36.8 °F 29.98 in West 11.0 mph 17.0 mph 40% 0.00 in
15:08 61.2 °F 38.5 °F 29.98 in WSW 8.0 mph 16.0 mph 43% 0.00 in
15:13 61.4 °F 36.9 °F 29.97 in West 14.0 mph 18.0 mph 40% 0.00 in
15:18 62.0 °F 37.4 °F 29.97 in SW 7.0 mph 16.0 mph 40% 0.00 in
15:23 61.7 °F 35.2 °F 29.97 in WSW 12.0 mph 17.0 mph 37% 0.00 in
15:28 61.7 °F 35.9 °F 29.97 in SSW 10.0 mph 14.0 mph 38% 0.00 in
15:33 61.5 °F 37.6 °F 29.97 in SW 10.0 mph 20.0 mph 41% 0.00 in
15:38 61.7 °F 36.5 °F 29.96 in SW 14.0 mph 16.0 mph 39% 0.00 in
15:43 61.6 °F 35.8 °F 29.97 in SW 17.0 mph 19.0 mph 38% 0.00 in
15:48 61.4 °F 36.2 °F 29.97 in West 12.0 mph 16.0 mph 39% 0.00 in
15:54 61.5 °F 37.0 °F 29.96 in SW 12.0 mph 16.0 mph 40% 0.00 in
15:59 61.8 °F 36.6 °F 29.97 in WSW 12.0 mph 16.0 mph 39% 0.00 in
16:04 61.7 °F 35.9 °F 29.97 in SSW 7.0 mph 18.0 mph 38% 0.00 in
16:09 61.5 °F 35.0 °F 29.96 in WSW 14.0 mph 18.0 mph 37% 0.00 in
16:14 61.7 °F 36.5 °F 29.96 in SW 6.0 mph 17.0 mph 39% 0.00 in
16:19 62.0 °F 36.8 °F 29.96 in WSW 12.0 mph 16.0 mph 39% 0.00 in
16:24 61.9 °F 34.7 °F 29.96 in SW 15.0 mph 18.0 mph 36% 0.00 in
16:29 61.9 °F 34.7 °F 29.97 in West 7.0 mph 15.0 mph 36% 0.00 in
16:34 61.7 °F 32.3 °F 29.97 in SW 14.0 mph 20.0 mph 33% 0.00 in
16:39 61.7 °F 30.0 °F 29.97 in West 8.0 mph 19.0 mph 30% 0.00 in
16:44 61.7 °F 29.1 °F 29.97 in WSW 14.0 mph 18.0 mph 29% 0.00 in
16:49 62.0 °F 29.4 °F 29.97 in WSW 16.0 mph 16.0 mph 29% 0.00 in
16:54 62.0 °F 32.6 °F 29.97 in WSW 11.0 mph 14.0 mph 33% 0.00 in
16:59 62.0 °F 34.8 °F 29.96 in WSW 6.0 mph 13.0 mph 36% 0.00 in
17:04 62.0 °F 34.1 °F 29.96 in SW 13.0 mph 13.0 mph 35% 0.00 in
17:09 62.1 °F 32.7 °F 29.96 in WSW 12.0 mph 16.0 mph 33% 0.00 in
17:14 62.0 °F 31.8 °F 29.96 in SSW 8.0 mph 13.0 mph 32% 0.00 in
17:19 61.9 °F 30.1 °F 29.96 in WSW 10.0 mph 14.0 mph 30% 0.00 in
17:24 61.7 °F 30.0 °F 29.96 in WSW 10.0 mph 17.0 mph 30% 0.00 in
17:29 61.6 °F 31.5 °F 29.96 in WSW 9.0 mph 10.0 mph 32% 0.00 in
17:34 61.6 °F 29.1 °F 29.96 in WSW 8.0 mph 11.0 mph 29% 0.00 in
17:39 61.3 °F 25.2 °F 29.96 in WSW 11.0 mph 21.0 mph 25% 0.00 in
17:44 61.2 °F 27.0 °F 29.96 in WSW 8.0 mph 15.0 mph 27% 0.00 in
17:49 61.0 °F 26.8 °F 29.95 in SW 11.0 mph 15.0 mph 27% 0.00 in
17:54 60.8 °F 29.2 °F 29.95 in SSW 9.0 mph 11.0 mph 30% 0.00 in
17:59 60.7 °F 29.9 °F 29.95 in SSW 10.0 mph 15.0 mph 31% 0.00 in
18:04 60.5 °F 30.5 °F 29.95 in SW 5.0 mph 11.0 mph 32% 0.00 in
18:09 60.2 °F 30.2 °F 29.95 in SW 12.0 mph 12.0 mph 32% 0.00 in
18:14 59.9 °F 30.0 °F 29.96 in WSW 4.0 mph 8.0 mph 32% 0.00 in
18:19 59.6 °F 29.0 °F 29.96 in WSW 4.0 mph 9.0 mph 31% 0.00 in
18:24 59.1 °F 28.5 °F 29.97 in SW 10.0 mph 12.0 mph 31% 0.00 in
18:29 58.7 °F 28.9 °F 29.97 in SSW 6.0 mph 12.0 mph 32% 0.00 in
18:34 58.1 °F 29.2 °F 29.96 in WSW 4.0 mph 8.0 mph 33% 0.00 in
18:40 57.8 °F 28.9 °F 29.96 in SW 5.0 mph 8.0 mph 33% 0.00 in
18:45 57.2 °F 29.8 °F 29.96 in SW 4.0 mph 6.0 mph 35% 0.00 in
18:50 56.4 °F 29.8 °F 29.96 in SW 3.0 mph 7.0 mph 36% 0.00 in
18:55 55.9 °F 30.0 °F 29.96 in SW 4.0 mph 6.0 mph 37% 0.00 in
19:00 55.3 °F 30.1 °F 29.97 in SW 3.0 mph 4.0 mph 38% 0.00 in
19:05 55.0 °F 29.9 °F 29.97 in SW 3.0 mph 5.0 mph 38% 0.00 in
19:10 54.6 °F 30.2 °F 29.97 in SW 3.0 mph 5.0 mph 39% 0.00 in
19:15 54.4 °F 30.0 °F 29.98 in SW 3.0 mph 4.0 mph 39% 0.00 in
19:20 54.2 °F 29.8 °F 29.98 in SW 2.0 mph 4.0 mph 39% 0.00 in
19:25 54.2 °F 29.2 °F 29.98 in SW 2.0 mph 3.0 mph 38% 0.00 in
19:30 54.3 °F 29.2 °F 29.98 in SSW 2.0 mph 3.0 mph 38% 0.00 in
19:35 54.0 °F 29.0 °F 29.97 in South 3.0 mph 3.0 mph 38% 0.00 in
19:40 54.1 °F 29.1 °F 29.97 in South 3.0 mph 3.0 mph 38% 0.00 in
19:45 53.9 °F 28.9 °F 29.98 in SSW 1.0 mph 4.0 mph 38% 0.00 in
19:50 53.4 °F 28.5 °F 29.98 in SW 3.0 mph 3.0 mph 38% 0.00 in
19:55 53.1 °F 28.2 °F 29.98 in SW 3.0 mph 4.0 mph 38% 0.00 in
20:00 52.8 °F 27.9 °F 29.98 in South 2.0 mph 4.0 mph 38% 0.00 in
20:05 52.9 °F 28.0 °F 29.97 in SSE 3.0 mph 3.0 mph 38% 0.00 in
20:10 52.8 °F 27.9 °F 29.98 in South 1.0 mph 4.0 mph 38% 0.00 in
20:15 52.8 °F 28.5 °F 29.98 in SW 5.0 mph 6.0 mph 39% 0.00 in
20:20 52.5 °F 28.3 °F 29.98 in SW 3.0 mph 5.0 mph 39% 0.00 in
20:25 52.4 °F 28.2 °F 29.98 in SW 4.0 mph 5.0 mph 39% 0.00 in
20:30 52.1 °F 28.5 °F 29.99 in SW 3.0 mph 4.0 mph 40% 0.00 in
20:35 51.9 °F 28.4 °F 29.98 in SSW 2.0 mph 3.0 mph 40% 0.00 in
20:40 51.9 °F 28.4 °F 29.99 in SSW 2.0 mph 4.0 mph 40% 0.00 in
20:45 51.7 °F 28.2 °F 29.99 in SSW 3.0 mph 4.0 mph 40% 0.00 in
20:50 51.3 °F 27.8 °F 29.99 in SW 4.0 mph 4.0 mph 40% 0.00 in
20:55 51.1 °F 27.6 °F 29.98 in SW 4.0 mph 5.0 mph 40% 0.00 in
21:00 51.6 °F 27.5 °F 29.98 in SSW 2.0 mph 5.0 mph 39% 0.00 in
21:05 52.0 °F 27.8 °F 29.99 in South 3.0 mph 6.0 mph 39% 0.00 in
21:11 51.5 °F 28.0 °F 29.98 in SW 4.0 mph 5.0 mph 40% 0.00 in
21:16 51.0 °F 27.5 °F 29.99 in SW 3.0 mph 4.0 mph 40% 0.00 in
21:21 50.9 °F 27.5 °F 29.98 in SSW 2.0 mph 5.0 mph 40% 0.00 in
21:26 50.8 °F 27.4 °F 29.99 in SSW 3.0 mph 3.0 mph 40% 0.00 in
21:31 50.7 °F 27.3 °F 29.99 in SSW 2.0 mph 4.0 mph 40% 0.00 in
21:36 50.6 °F 26.6 °F 29.99 in WSW 3.0 mph 3.0 mph 39% 0.00 in
21:41 50.4 °F 27.0 °F 29.99 in SSW 2.0 mph 3.0 mph 40% 0.00 in
21:46 50.3 °F 26.9 °F 29.99 in SSW 2.0 mph 3.0 mph 40% 0.00 in
21:51 50.4 °F 27.0 °F 29.99 in SSW 2.0 mph 4.0 mph 40% 0.00 in
21:56 50.3 °F 26.9 °F 29.99 in South 3.0 mph 5.0 mph 40% 0.00 in
22:01 50.2 °F 27.4 °F 29.99 in SSW 3.0 mph 5.0 mph 41% 0.00 in
22:06 50.3 °F 27.5 °F 29.99 in SSW 4.0 mph 5.0 mph 41% 0.00 in
22:11 50.5 °F 27.1 °F 29.99 in SSW 2.0 mph 5.0 mph 40% 0.00 in
22:16 50.7 °F 26.7 °F 29.99 in South 2.0 mph 5.0 mph 39% 0.00 in
22:21 50.6 °F 26.6 °F 29.99 in SSE 3.0 mph 4.0 mph 39% 0.00 in
22:26 50.3 °F 26.9 °F 29.99 in SSW 3.0 mph 4.0 mph 40% 0.00 in
22:31 49.8 °F 27.1 °F 29.99 in SSW 3.0 mph 4.0 mph 41% 0.00 in
22:36 49.5 °F 27.4 °F 29.99 in South 3.0 mph 5.0 mph 42% 0.00 in
22:41 49.6 °F 27.5 °F 29.99 in SSW 2.0 mph 3.0 mph 42% 0.00 in
22:46 49.5 °F 27.4 °F 29.99 in SW 2.0 mph 3.0 mph 42% 0.00 in
22:51 49.2 °F 27.1 °F 29.99 in SSW 3.0 mph 3.0 mph 42% 0.00 in
22:56 49.0 °F 27.5 °F 29.99 in SSW 2.0 mph 4.0 mph 43% 0.00 in
23:01 49.1 °F 27.0 °F 29.99 in SW 2.0 mph 4.0 mph 42% 0.00 in
23:06 49.0 °F 27.5 °F 29.99 in South 2.0 mph 3.0 mph 43% 0.00 in
23:11 48.9 °F 27.4 °F 29.98 in South 2.0 mph 3.0 mph 43% 0.00 in
23:16 48.8 °F 27.3 °F 29.98 in SW 2.0 mph 2.0 mph 43% 0.00 in
23:21 48.9 °F 27.4 °F 29.98 in WSW 1.0 mph 2.0 mph 43% 0.00 in
23:26 48.7 °F 27.2 °F 29.98 in West 1.0 mph 2.0 mph 43% 0.00 in
23:31 48.5 °F 27.0 °F 29.98 in SW 1.0 mph 2.0 mph 43% 0.00 in
23:36 48.8 °F 26.7 °F 29.98 in SW 1.0 mph 1.0 mph 42% 0.00 in
23:41 48.8 °F 26.7 °F 29.98 in SW 1.0 mph 1.0 mph 42% 0.00 in
23:46 48.4 °F 26.4 °F 29.98 in Calm     42% 0.00 in
23:51 47.9 °F 26.5 °F 29.97 in Calm   1.0 mph 43% 0.00 in
23:56 47.8 °F 26.4 °F 29.97 in SSW 1.0 mph 1.0 mph 43% 0.00 in
Compliments of Weather Underground